User: anonymous   Login
Location: Unspecified
(0.0000°N, 0.0000°E)
Time: 01:06:14
(UTC+01:00)
Language:

Cosmos 2279 Rocket - Orbit

View from above orbital plane
View from above orbital plane
View from above satellite
View from above satellite

Ground track
Ground track

The orbit data is extracted from the following two-line orbital elements,

1 23093U 94024B   14355.81308647  .00000096  00000-0  80730-4 0  9516
2 23093 082.9476 070.0424 0010462 038.0436 322.1458 13.77640299506351
Epoch (UTC): 21 December 2014 19:30:50
Eccentricity: 0.0010462
inclination: 82.9476°
perigee height: 964 km
apogee height: 980 km
right ascension of ascending node: 70.0424°
argument of perigee: 38.0436°
revolutions per day: 13.77640299
mean anomaly at epoch: 322.1458°
orbit number at epoch: 50635

The dashed part of the orbit path shows where the satellite is in the earth's shadow,  

DLR